Погода в Саутпорте

Великобритания     53°38′50″N   3°00′26″W
темп.,
°C
ветер,
м/с
пор.,
м/с
влажн.,
%
обл.,
%
осадки,
мм/ч
давл.,
гПа
погр.,
м
25 июля, вс
вс2501:00+13в4790100 0.0 1011150
04:00+12в3589100 0.0 1010117
07:00+13всв2484100 0.0 1011148
10:00+17ссв3368100 0.0 1010749
13:00+20с346175 0.0 10101019
16:00+20ссз446229 0.0 10101093
19:00+18с447227 0.0 1010489
22:00+15ссз22870 0.0 101130
26 июля, пн
пн2601:00+15сз22870 0.0 101129
04:00+14ю11880 0.0 101019
07:00+15юв11870 0.0 101062
10:00+19зсз33712 0.0 1010624
13:00+19з43684 0.0 1010739
16:00+19зсз3269100 0.0 1009594
19:00+18сз3374100 0.0 1008296
22:00+16сз1186100 0.0 100817
27 июля, вт
вт2701:00+15з1287100 0.0 100827
04:00+15юз1289100 0.0 100768
07:00+16юз1183100 0.0 1007111
10:00+19ююв2270100 0.1 1006658
13:00+20зсз326955 1.2 1005732
16:00+19зсз327531 1.7 1005495
19:00+16з568875 2.6 1004467
22:00+15зюз599097 2.3 1005535
28 июля, ср
ср2801:00+14зюз10129197 2.9 1004732
04:00+14зюз9118469 0.2 1004809
07:00+14зюз798375 0.5 1005722
10:00+15зюз787999 1.3 1005860
13:00+16з677026 2.3 1005978
16:00+17зюз696234 0.6 10041257
19:00+16зюз796897 0.9 10041067
22:00+14юз697886 0.9 1004431
29 июля, чт
чт2901:00+13юз710835 2.0 1004484
04:00+13зюз8118415 0.9 1004596
07:00+13юз7108222 1.9 1005710
10:00+15зюз8107414 0.9 10051166
13:00+17зюз810620 0.9 10051316
16:00+18юз9126094 0.1 10041524
19:00+15зюз91483100 1.0 1004948
22:00+14зюз11159199 2.8 1003849